Flag for China Weather past 2 weeks in Tsingtao, China

Now
59 °F

Passing clouds.


Feels Like: 59 °F
Forecast: 52 / 58 °F
Wind: 1 mph from North

Location: Qingdao Airport


UV Index: 0 (Low)

Visibility: N/A


Pressure: 30.09 "Hg

Humidity: 55%

Dew point: 43 °F

Location of TsingtaoLocation

Historic Weather in Tsingtao

°F

Tsingtao temperature yesterday

Maximum temperature yesterday: 59 °F (at 3:00 AM)
Minimum temperature yesterday: 54 °F (at 9:00 PM)
Average temperature yesterday: 57 °F

Past Weeks' High & Low Weather Summary

 TemperatureHumidityPressure
High77 °F (Apr 15, 1:00 PM)88% (Apr 10, 2:00 AM)30.27 "Hg (Apr 10, 2:00 AM)
Low37 °F (Apr 4, 2:00 AM)12% (Apr 4, 7:00 PM)29.80 "Hg (Apr 4, 3:00 PM)
Average57 °F54%30.04 "Hg
* Reported Apr 3 9:00 PM — Apr 18 9:00 PM, Tsingtao, Weather by CustomWeather, © 2014

Note: Actual official high and low records may vary slightly from our data, if they occured in-between our weather recording intervals... More about our weather records

Advertising

Historic Weather Conditions — Data for Previous 24 hours

 ConditionsComfort  
Time TempWeatherWind HumidityBarometerVisibility
9:00 PM
Apr 18
59 °FPassing clouds.3 mph59%30.09 "HgN/A
8:00 PM61 °FClear.3 mph48%30.07 "Hg10 mi
7:00 PM63 °FPassing clouds.6 mph42%30.07 "HgN/A
6:00 PM63 °FPassing clouds.10 mph42%30.04 "HgN/A
5:00 PM68 °FSunny.10 mph33%30.04 "Hg10 mi
4:00 PM70 °FScattered clouds.8 mph35%30.04 "HgN/A
3:00 PM70 °FPassing clouds.8 mph40%30.04 "HgN/A
2:00 PM72 °FPassing clouds.8 mph36%30.04 "HgN/A
1:00 PM72 °FPassing clouds.10 mph36%30.07 "HgN/A
12:00 PM68 °FScattered clouds.10 mph43%30.09 "HgN/A
11:00 AM66 °FPassing clouds.10 mph49%30.09 "HgN/A
10:00 AM64 °FPassing clouds.6 mph52%30.09 "HgN/A
9:00 AM61 °FPassing clouds.8 mph59%30.09 "HgN/A
8:00 AM57 °FFog.6 mph77%30.09 "Hg3 mi
7:00 AM54 °FFog.3 mph88%30.09 "Hg3 mi
6:00 AM50 °FFog.1 mph88%30.07 "Hg2 mi
5:00 AM50 °FFog.1 mph88%30.07 "Hg2 mi
4:00 AM50 °FFog.1 mph88%30.04 "Hg2 mi
3:00 AM52 °FFog.1 mph88%30.04 "Hg3 mi
2:00 AM52 °FFog.1 mph88%30.01 "Hg3 mi
1:00 AM52 °FPassing clouds.1 mph82%30.01 "Hg4 mi
12:00 AM54 °FPassing clouds.1 mph77%29.98 "HgN/A
11:00 PM
Apr 17
54 °FClear.1 mph82%29.98 "Hg10 mi
10:00 PM54 °FClear.8 mph82%29.98 "Hg10 mi
Weather by CustomWeather, © 2014

See weather overview